Home   Weather   Sitka   Past weeks

Flag for USA Past Weather in Sitka, Alaska, USA — Yesterday and Last 2 Weeks

Now
38 °F

Partly sunny.


Feels Like: 35 °F
Forecast: 35 / 41 °F
Wind: 3 mph from Southeast

Location: Sitka Airport

Current Time: Jan 17, 2017 at 2:40:45 pm

Latest Report: Jan 17, 2017 at 1:53 pm


Visibility: 10 mi

Pressure: 29.03 "Hg

Humidity: 79%

Dew Point: 32 °F

Location of SitkaLocation

Past Weather in Sitka — Graph

°F

Sitka Temperature Yesterday

Maximum temperature yesterday: 47 °F (at 12:12 am)
Minimum temperature yesterday: 40 °F (at 10:48 pm)
Average temperature yesterday: 44 °F

High & Low Weather Summary for the Past Weeks

 TemperatureHumidityPressure
High48 °F (Jan 15, 8:53 pm)96% (Jan 4, 6:53 am)30.55 "Hg (Jan 4, 6:53 am)
Low26 °F (Jan 7, 8:53 am)18% (Jan 8, 7:53 am)29.07 "Hg (Jan 16, 1:36 am)
Average37 °F69%29.82 "Hg
* Reported Jan 2 12:53 pm — Jan 17 12:53 pm, Sitka, Weather by CustomWeather, © 2017

Note: Actual official high and low records may vary slightly from our data, if they occured in-between our weather recording intervals... More about our weather records

Advertising

Sitka Weather History for the Previous 24 Hours

Scroll right to see more
 ConditionsComfort  
Time TempWeatherWind HumidityBarometerVisibility
12:53 pm
Tue, Jan 17
37 °FScattered clouds.No wind86%29.07 "Hg10 mi
11:53 am37 °FSunny.3 mph86%29.10 "Hg10 mi
10:53 am38 °FPartly sunny.6 mph83%29.13 "Hg10 mi
9:53 am36 °FLow clouds.No wind92%29.16 "Hg10 mi
8:53 am36 °FOvercast.No wind89%29.18 "Hg10 mi
7:53 am35 °FOvercast.No wind88%29.20 "Hg10 mi
6:53 am36 °FMostly cloudy.No wind89%29.23 "Hg9 mi
5:53 am36 °FPassing clouds.3 mph85%29.26 "Hg10 mi
4:53 am36 °FMostly cloudy.5 mph85%29.28 "Hg10 mi
3:53 am37 °FLight rain. Mostly cloudy.7 mph86%29.29 "Hg10 mi
3:08 am37 °FLight rain. Overcast.5 mph89%29.31 "Hg10 mi
2:53 am37 °FOvercast.6 mph86%29.31 "Hg7 mi
1:53 am38 °FMostly cloudy.5 mph76%29.31 "Hg10 mi
12:53 am40 °FLight rain. Mostly cloudy.10 mph77%29.30 "Hg9 mi
11:53 pm
Mon, Jan 16
40 °FLight rain. Overcast.7 mph83%29.29 "Hg10 mi
11:00 pm40 °FLight rain. Mostly cloudy.13 mph80%29.29 "Hg10 mi
10:48 pm40 °FMostly cloudy.10 mph80%29.28 "Hg10 mi
9:53 pm41 °FLight rain. Mostly cloudy.12 mph76%29.27 "Hg8 mi
9:29 pm42 °FOvercast.3 mph76%29.27 "Hg10 mi
9:22 pm42 °FMostly cloudy.5 mph73%29.27 "Hg10 mi
8:53 pm42 °FMostly cloudy.5 mph73%29.25 "Hg10 mi
8:00 pm42 °FOvercast.7 mph76%29.24 "Hg10 mi
6:53 pm43 °FMostly cloudy.13 mph76%29.21 "Hg10 mi
6:36 pm43 °FMostly cloudy.10 mph79%29.21 "Hg10 mi
5:53 pm43 °FLight rain. Mostly cloudy.12 mph79%29.18 "Hg7 mi
5:43 pm43 °FLight rain. Mostly cloudy.12 mph79%29.18 "Hg7 mi
5:07 pm43 °FLight rain. Mostly cloudy.17 mph82%29.16 "Hg7 mi
5:00 pm43 °FLight rain. Fog.16 mph86%29.16 "Hg5 mi
4:06 pm44 °FRain. Fog.16 mph85%29.13 "Hg4 mi
3:53 pm44 °FRain. Fog.18 mph85%29.12 "Hg3 mi
2:53 pm44 °FRain. Overcast.22 mph79%29.09 "Hg2 mi
Weather by CustomWeather, © 2017

See weather overviewHow to use our weather pages